Miscellaneous Local Product
Issued by NWS Hastings, NE

Home | Current Version | Previous Version | Text Only | Print | Product List | Glossary Off
Versions: 1 2 3 4 5 6 7 8 9 10 11 12 13 14 15 16 17 18 19 20 21 22 23 24 25 26 27 28 29 30 31 32 33 34 35 36 37 38 39 40 41 42 43 44 45 46 47 48 49 50

819
AXUS43 KGID 030002
MISGRI

GID CWA HOURLY WEATHER ROUNDUP
NATIONAL WEATHER SERVICE HASTINGS NE
600 PM CST FRI DEC 02 2016

NOTE: "FAIR" INDICATES FEW OR NO CLOUDS BELOW 12,000 FEET WITH NO
SIGNIFICANT WEATHER AND/OR OBSTRUCTIONS TO VISIBILITY.

...SOUTH CENTRAL NEBRASKA...

CITY           SKY/WX    TMP DP  RH WIND       PRES   REMARKS
GRAND ISLAND   PTCLDY    31  25  78 CALM      30.29S
HASTINGS       CLEAR     33  24  69 CALM      30.29S
KEARNEY        CLEAR     36  23  60 CALM      30.28R
ORD            CLEAR     26  18  71 CALM      30.26R
YORK           CLEAR     36  25  64 CALM      30.29F
AURORA         CLEAR     33  24  69 CALM      30.28F
LEXINGTON      CLEAR     33  25  72 CALM      30.26S
HOLDREGE       CLEAR     29  21  71 NE3       30.26S
HEBRON         CLOUDY    35  25  69 CALM      30.29F

...NEBRASKA PANHANDLE...

CITY           SKY/WX    TMP DP  RH WIND       PRES   REMARKS
CHADRON        CLEAR     29  17  61 W6        30.19R WCI  23
ALLIANCE       CLOUDY    33  18  53 S5        30.19R WCI  29
SCOTTSBLUFF    CLOUDY    33  18  53 SE3       30.20R
SIDNEY         CLOUDY    26  19  74 SW5       30.20S WCI  20

...WESTERN AND NORTH CENTRAL NEBRASKA...

CITY           SKY/WX    TMP DP  RH WIND       PRES   REMARKS
VALENTINE      CLEAR     31  24  75 NW6       30.24R WCI  25
AINSWORTH      CLEAR     30  24  79 E3        30.24R
ONEILL         CLEAR     32  27  80 CALM      30.28R
BROKEN BOW     CLOUDY    28  21  75 CALM      30.24S
IMPERIAL       CLOUDY    35  23  61 CALM      30.22S
NORTH PLATTE   CLEAR     27  19  72 E7        30.24R WCI  19
MCCOOK         PTCLDY    35  22  58 NE3       30.24F

...EASTERN NEBRASKA...

CITY           SKY/WX    TMP DP  RH WIND       PRES   REMARKS
NORFOLK        CLEAR     29  24  82 N5        30.30R WCI  24
SO SIOUX CITY  CLOUDY    36  31  82 NW7       30.33R WCI  30
TEKAMAH        CLOUDY    37  29  72 NW5       30.32R WCI  33
COLUMBUS       CLEAR     30  25  80 CALM      30.32R
ALBION         PTCLDY    31  26  80 NE8       30.29R WCI  24
OMAHA EPPLEY   MOCLDY    37  28  70 CALM      30.32R
OFFUTT AFB     CLEAR     29  29  98 N3        30.32R
MILLARD        CLEAR     37  28  72 CALM      30.32S
LINCOLN        CLEAR     34  26  72 N3        30.33R
NEBRASKA CITY  CLEAR     37  25  63 N3        30.32R
BEATRICE       CLOUDY    32  26  77 N8        30.30S WCI  25
FALLS CITY       N/A    N/A N/A N/A MISG      30.31R

...NORTHERN KANSAS...

CITY           SKY/WX    TMP DP  RH WIND       PRES   REMARKS
GOODLAND       CLOUDY    33  14  45 NE6       30.21R WCI  28
HILL CITY      CLOUDY    35  20  54 E5        30.26R WCI  31
NORTON         CLEAR     28  18  64 N5        30.25S WCI  23
PHILLIPSBURG   CLEAR     36  25  64 NE3       30.27S
SMITH CENTER   CLEAR     34  25  69 NE6       30.28R WCI  29
BELOIT         CLEAR     30  21  69 CALM      30.29R
HAYS           CLEAR     35  21  56 N9        30.26R WCI  28
RUSSELL        CLEAR     35  21  56 NE9       30.25R WCI  28
CONCORDIA      CLEAR     37  25  61 CALM      30.29R
SALINA         CLEAR     44  23  43 NE3       30.27S
TOPEKA         CLEAR     39  26  59 N7        30.30R WCI  34



USA.gov is the U.S. government's official web portal to all federal, state and local government web resources and services.